Content
SEND FEEDBACK

Daily
Averages
Monthly
Summary
United States of America

SHELBY, OHIO


Home > North America > United States > Ohio
Elevation: 1416 feet     Latitude: 40 46N     Longitude: 082 37W

WEATHER
 
SELECT A DAY
Number of Records: 212,306;   Date Range: 1/1/95 - 7/20/14
 
SHARE

PRINT THIS DATA

[ ← Previous Day ]
WEATHER ALMANAC - FEBRUARY 13, 2013
[ Next Day → ]
[ °C ]   °F
Weather ElementAverageHighLow
Temperature27.1 °F30.9 °F (1:52 pm)23 °F (1:52 am)
Dewpoint24 °F26.6 °F (4:16 am)21 °F (9:52 pm)
Humidity88.5 %100 % (1:52 am)78 % (5:52 pm)
Barometer29.82 in29.91 in (1:52 am)29.74 in (5:25 pm)
Wind Speed4.3 mph10.4 mph (8:50 am)
Weather ElementAverage
Visibility6 mi
Wind DirectionESE (127.9 °)

Weather ElementTotal
Precipitation---
Heating Degree Days38.1 (Base 65)
Averaged from 29 records on February 13, 2013
WEATHER CONDITIONS BREAKOUT
WIND DIRECTION BREAKOUT
WEATHER BY HOUR - FEBRUARY 13, 2013
[ °C ]   °F
Local TimeTemperatureDewpointHumidityBarometerVisibilityWind DirectionWind SpeedGust SpeedPrecipitationEventsConditions
1:52 AM23.0 °F23.0 °F100 %29.91 in7.0 miCalmClear
2:52 AM26.6 °F23.0 °F86 %29.86 in7.0 miNNW (330°)3.5 mphMostly Cloudy
3:52 AM26.1 °F25.0 °F96 %29.89 in6.0 miNW (310°)3.5 mphMostly Cloudy
4:16 AM26.6 °F26.6 °F100 %29.85 in6.0 miCalmOvercast
4:52 AM27.0 °F25.0 °F92 %29.88 in5.0 miCalmOvercast
5:52 AM27.0 °F25.0 °F92 %29.86 in5.0 miCalmPartly Cloudy
6:52 AM26.1 °F24.1 °F92 %29.84 in5.0 miNNE (20°)4.6 mphScattered Clouds
7:03 AM26.6 °F24.8 °F93 %29.80 in5.0 miNNE (20°)3.5 mphMostly Cloudy
7:10 AM26.6 °F24.8 °F93 %29.80 in4.0 miNorth (10°)4.6 mphScattered Clouds
7:52 AM26.1 °F24.1 °F92 %29.83 in3.0 miNorth (10°)4.6 mphClear
8:11 AM26.6 °F24.8 °F93 %29.78 in3.0 miNorth (360°)6.9 mphMostly Cloudy
8:50 AM26.6 °F24.8 °F93 %29.77 in4.0 miNorth (10°)10.4 mphOvercast
8:52 AM27.0 °F24.1 °F89 %29.81 in4.0 miNorth (360°)10.4 mphOvercast
9:52 AM27.0 °F24.1 °F89 %29.83 in6.0 miNorth (10°)8.1 mphOvercast
10:52 AM28.0 °F24.1 °F85 %29.83 in7.0 miNE (50°)3.5 mphOvercast
11:52 AM28.9 °F24.1 °F82 %29.82 in7.0 miCalmOvercast
12:52 PM30.0 °F25.0 °F82 %29.78 in7.0 miCalmMostly Cloudy
1:52 PM30.9 °F25.0 °F79 %29.78 in7.0 miWNW (290°)5.8 mphOvercast
2:52 PM30.0 °F24.1 °F79 %29.77 in6.0 miNNW (330°)10.4 mphHaze
3:52 PM30.0 °F24.1 °F79 %29.78 in7.0 miNW (310°)6.9 mphOvercast
4:52 PM30.0 °F24.1 °F79 %29.77 in8.0 miCalmOvercast
5:25 PM30.2 °F24.8 °F80 %29.74 in8.0 miCalmScattered Clouds
5:52 PM28.9 °F23.0 °F78 %29.79 in8.0 miCalmClear
6:52 PM27.0 °F23.0 °F85 %29.81 in8.0 miWSW (250°)3.5 mphClear
7:52 PM26.1 °F24.1 °F92 %29.84 in7.0 miWSW (240°)5.8 mphClear
8:52 PM24.1 °F21.9 °F91 %29.85 in6.0 miSSW (210°)6.9 mphClear
9:52 PM23.0 °F21.0 °F92 %29.86 in5.0 miSSW (200°)6.9 mphClear
10:52 PM24.1 °F21.9 °F91 %29.87 in6.0 miSSW (210°)8.1 mphClear
11:52 PM25.0 °F23.0 °F92 %29.87 in6.0 miSouth (180°)8.1 mphClear
Hourly data recorded from KMFD, located miles away from Shelby, Ohio







STORIES FROM OUR PARTNERS